FUNCUBE-1 (AO-73) (39444 NORAD) Tracking and Keplerian Element Data

This shows tracking and keplerian element data for the satellite.

Feedback or suggestion? Click here.




ElementValue
Catalog39444
NameFUNCUBE-1 (AO-73)
Epoch Orbit48471
Epoch Day324.84049335
Epoch Year2022
RAAN291.9361
Inclination97.645
Eccentricity0.0054001
Argument of Perigee238.1879
Mean Anonmoly121.4071
Mean Motion14.84261991
Decay Rate2.043E-05
L11 39444U 13066AE 22324.84049335 .00002043 00000+0 24395-3 0 9993
L22 39444 97.6450 291.9361 0054001 238.1879 121.4071 14.84261991484711



Live tracking and technical data element details for FUNCUBE-1 (AO-73) (NORAD 39444). FUNCUBE-1 (AO-73) can be tracked NOW for your location showing map with azimuth and elevation plus other details from your city location.







IsCatalogInMostPopularTable: catalog: 39444, numindb: 538
Update: records affected: 1



GetName: 39444 FUNCUBE-1 (AO-73)

Hit Count: updated at: Fri, 02 Dec 2022 12:48:41 GMT